Weather in Morgunovo

Russia / Kaliningrad Oblast     54°49′06″N   20°47′35″E
В апреле 2022 года жителям России запретили посещать сайт meteo.paraplan.net по решению Генеральной прокуратуры. Аудитория сайта уменьшилась в 10 раз. Владельцы сайта не видят смысла в поддержке погодного сервера в таких условиях. Сайт будет закрыт в октябре.
temp.,
°C
wind,
m/s
gust,
m/s
humid.,
%
clouds,
%
prec.,
mm/h
press.,
hPa
HPBL,
m
29 september, thu
thu2923:00+7ese229377 0.0 99920
02:00+8sse3696100 0.4 999217
05:00+8s1294100 1.1 99842
08:00+9ssw229299 1.3 999100
11:00+12sw347775 0.1 1001673
14:00+14wsw456446 0.8 10021188
17:00+13wsw46682 0.1 1003575
20:00+9wsw338822 0.1 100541
30 september, fri
fri3023:00+8sw34905 0.0 100757
02:00+8sw34895 0.0 100953
05:00+8sw34915 0.0 101055
08:00+9sw35825 0.0 1011118
11:00+15wsw45575 0.0 10131133
14:00+16wsw434974 0.1 10131685
17:00+14wnw225574 0.0 101370
20:00+11ne117040 0.0 101411
1 october, sat
sat123:00+8se227998 0.0 101421
02:00+8sse3373100 0.0 101437
05:00+8s2370100 0.0 101344
08:00+9s2567100 0.0 1013174
11:00+13s346774 0.1 1012525
14:00+14sse56646 0.2 1011856
17:00+12se5870100 0.0 1010519
20:00+10se51180100 0.0 1009295
2 october, sun
sun223:00+10sse41190100 1.4 1008368
02:00+10s3793100 1.7 1008295
05:00+10s3795100 0.9 1007371
08:00+11wsw61292100 4.1 1007725
11:00+14w71180100 1.8 10081000
14:00+14wnw7108097 4.1 10091049
17:00+13wnw5108431 1.0 1010681
20:00+10w39955 2.1 1011243
3 october, mon
mon323:00+10wsw4109444 0.1 1011259
02:00+9wsw399438 0.1 1011207
05:00+9w399517 0.0 1011190
08:00+10w389265 0.0 1011216
11:00+14wnw687270 0.6 10111066
14:00+14wnw797263 1.7 10111183
17:00+12wnw5975100 0.1 1011795
20:00+8w34905 0.1 101059